Temp
-5 -5 -5 -4 -7 -8 -7 -5 -4 -4 -4 -4 -4 -4 -4 -6 -5 -5 -5 -6 -6 -6 -7 -7 -7 -8 -8 -8 -8 -8 -8 -8 -8 -8 -8 -8 -7 -7 -8 -8 -8 -8 -7 -7 -7 -7 -7 -7 -7
-5 -6 -4 -7 -7 -8 -5 -5 -4 -4 -4 -4 -4 -4 -4 -5 -5 -6 -6 -6 -6 -6 -7 -7 -8 -8 -8 -8 -8 -8 -8 -8 -8 -8 -8 -8 -8 -8 -7 -8 -8 -8 -8 -8 -8 -8 -8 -7 -7
-5 -6 -5 -7 -7 -7 -5 -5 -4 -4 -4 -4 -4 -4 -5 -5 -5 -5 -6 -6 -6 -6 -7 -7 -7 -8 -8 -8 -8 -9 -9 -9 -8 -8 -8 -8 -8 -8 -8 -8 -8 -8 -8 -8 -8 -8 -8 -7 -7
-6 -6 -7 -7 -8 -7 -5 -5 -5 -5 -5 -4 -4 -4 -4 -5 -5 -6 -6 -6 -6 -6 -7 -7 -7 -7 -8 -8 -8 -8 -9 -9 -9 -9 -9 -9 -8 -8 -8 -9 -8 -8 -9 -8 -8 -7 -7 -7 -7
-5 -6 -7 -7 -8 -7 -6 -5 -5 -5 -5 -5 -5 -4 -5 -5 -5 -6 -6 -6 -6 -6 -7 -7 -7 -7 -8 -8 -8 -8 -8 -9 -9 -9 -9 -9 -8 -8 -8 -8 -8 -8 -8 -8 -7 -7 -7 -7 -7
-5 -6 -6 -7 -7 -8 -7 -6 -6 -5 -5 -5 -5 -5 -5 -5 -5 -6 -6 -6 -6 -6 -7 -7 -7 -7 -8 -8 -8 -8 -8 -8 -8 -8 -8 -8 -8 -8 -8 -8 -8 -8 -8 -8 -8 -8 -7 -7 -7
-6 -7 -7 -7 -7 -8 -6 -8 -6 -6 -5 -6 -5 -6 -6 -6 -6 -6 -6 -6 -6 -6 -7 -7 -7 -7 -8 -8 -8 -8 -8 -8 -8 -8 -8 -8 -8 -8 -8 -8 -8 -8 -8 -8 -8 -8 -8 -7 -7
-5 -6 -7 -7 -7 -8 -8 -6 -6 -6 -6 -5 -5 -6 -6 -6 -6 -6 -6 -6 -6 -6 -7 -7 -7 -7 -7 -7 -8 -8 -8 -8 -8 -8 -8 -8 -8 -8 -8 -8 -8 -8 -8 -8 -8 -8 -8 -8 -7
-6 -6 -7 -7 -7 -7 -8 -7 -6 -6 -6 -6 -6 -6 -6 -6 -6 -6 -6 -6 -6 -6 -6 -7 -7 -8 -8 -8 -8 -8 -8 -8 -8 -8 -8 -8 -8 -8 -8 -8 -8 -8 -8 -8 -8 -8 -7 -8 -8
-7 -6 -7 -7 -7 -7 -8 -7 -6 -7 -6 -6 -6 -6 -6 -6 -6 -6 -6 -6 -7 -7 -7 -7 -8 -7 -8 -8 -8 -8 -8 -8 -8 -8 -8 -8 -8 -8 -8 -8 -8 -8 -8 -7 -7 -7 -7 -7 -8
-7 -7 -7 -7 -7 -7 -8 -8 -8 -8 -7 -7 -6 -6 -6 -6 -6 -6 -7 -7 -7 -7 -7 -7 -7 -7 -7 -9 -9 -8 -8 -8 -7 -7 -8 -9 -8 -8 -8 -8 -8 -8 -7 -6 -7 -7 -8 -7 -7
-7 -8 -7 -8 -7 -7 -7 -7 -8 -8 -7 -7 -7 -7 -7 -7 -7 -7 -7 -7 -7 -7 -7 -8 -8 -8 -8 -9 -8 -8 -7 -7 -7 -7 -7 -8 -9 -8 -8 -8 -8 -8 -7 -8 -8 -6 -7 -7 -7
-7 -7 -7 -7 -7 -8 -7 -8 -8 -8 -7 -7 -7 -7 -7 -7 -7 -7 -7 -7 -7 -7 -7 -8 -8 -8 -7 -7 -7 -8 -8 -8 -7 -7 -7 -7 -8 -8 -8 -8 -8 -7 -7 -7 -6 -7 -7 -7 -7
-8 -8 -8 -8 -8 -6 -7 -8 -6 -6 -6 -7 -7 -7 -7 -7 -7 -7 -7 -7 -8 -7 -8 -8 -8 -8 -7 -8 -7 -8 -8 -7 -7 -7 -7 -7 -7 -8 -8 -7 -7 -7 -7 -7 -7 -7 -7 -7 -7
-8 -8 -7 -8 -8 -8 -7 -7 -8 -6 -6 -7 -7 -7 -7 -7 -7 -7 -7 -7 -8 -8 -8 -8 -8 -8 -8 -8 -7 -8 -8 -7 -6 -7 -6 -7 -8 -7 -7 -7 -7 -7 -7 -7 -7 -7 -7 -7 -7
-8 -7 -6 -8 -7 -7 -6 -7 -8 -7 -7 -6 -7 -7 -7 -7 -7 -7 -7 -7 -8 -8 -8 -8 -8 -8 -8 -8 -7 -7 -7 -7 -6 -7 -7 -7 -7 -7 -7 -7 -6 -6 -6 -7 -7 -7 -7 -7 -7
-7 -7 -7 -7 -6 -7 -6 -7 -8 -7 -7 -7 -7 -7 -7 -7 -7 -7 -7 -8 -8 -8 -8 -8 -8 -8 -8 -7 -7 -6 -6 -7 -6 -7 -6 -7 -7 -7 -7 -6 -7 -6 -6 -7 -7 -7 -7 -7 -7
-6 -6 -6 -7 -7 -7 -7 -7 -8 -7 -8 -8 -7 -7 -7 -7 -7 -8 -8 -8 -8 -8 -8 -9 -8 -8 -8 -7 -7 -7 -6 -7 -6 -6 -6 -7 -7 -7 -7 -7 -6 -6 -6 -7 -6 -6 -6 -7 -7
-7 -7 -7 -7 -7 -6 -7 -7 -7 -8 -8 -8 -7 -7 -7 -7 -7 -8 -8 -8 -8 -8 -8 -9 -9 -9 -8 -8 -7 -7 -7 -6 -7 -7 -7 -7 -7 -7 -7 -7 -7 -7 -7 -7 -6 -6 -6 -6 -6
-7 -7 -7 -7 -7 -7 -7 -7 -7 -8 -8 -8 -8 -7 -7 -7 -7 -7 -8 -8 -8 -8 -8 -9 -9 -9 -8 -8 -8 -8 -7 -8 -7 -8 -7 -7 -7 -7 -7 -7 -7 -7 -7 -7 -6 -6 -6 -7 -7
-8 -8 -7 -7 -7 -7 -7 -7 -7 -8 -7 -7 -8 -7 -7 -8 -7 -8 -8 -8 -8 -8 -8 -9 -10 -9 -9 -8 -9 -9 -8 -8 -8 -8 -8 -8 -8 -7 -7 -8 -7 -6 -6 -6 -6 -6 -7 -6 -6
-8 -8 -8 -7 -7 -7 -7 -6 -8 -7 -8 -8 -8 -7 -8 -8 -8 -7 -8 -8 -8 -8 -8 -9 -9 -9 -9 -9 -8 -9 -9 -9 -9 -8 -9 -8 -8 -8 -8 -7 -6 -6 -6 -6 -7 -7 -7 -7 -7
-8 -8 -8 -8 -7 -7 -6 -6 -6 -7 -7 -8 -8 -8 -8 -8 -7 -8 -8 -8 -8 -8 -9 -9 -9 -9 -9 -9 -8 -8 -8 -9 -9 -9 -10 -9 -8 -7 -7 -7 -7 -6 -6 -6 -6 -6 -6 -7 -7
-8 -7 -7 -8 -7 -7 -7 -7 -6 -6 -7 -8 -7 -8 -7 -8 -8 -8 -9 -8 -9 -9 -9 -9 -9 -9 -9 -9 -9 -8 -8 -9 -9 -9 -9 -8 -8 -7 -7 -7 -6 -6 -6 -6 -6 -6 -6 -7 -7
-7 -8 -8 -7 -7 -6 -7 -7 -7 -7 -7 -7 -7 -7 -8 -8 -8 -9 -9 -9 -9 -9 -9 -9 -9 -9 -10 -9 -9 -9 -8 -9 -9 -9 -9 -8 -8 -7 -7 -7 -7 -6 -6 -6 -6 -6 -6 -7 -7
-7 -8 -7 -6 -6 -6 -7 -7 -7 -7 -7 -7 -7 -8 -7 -8 -9 -9 -9 -8 -9 -9 -9 -9 -9 -9 -9 -10 -10 -9 -8 -8 -9 -9 -8 -8 -8 -7 -7 -7 -7 -6 -6 -6 -6 -6 -6 -6 -7
-8 -7 -8 -7 -7 -7 -6 -7 -8 -7 -7 -7 -7 -8 -8 -8 -9 -9 -8 -8 -9 -9 -9 -9 -9 -9 -9 -9 -9 -9 -8 -8 -8 -9 -8 -8 -8 -7 -7 -7 -7 -7 -6 -6 -6 -6 -6 -6 -6
-8 -8 -8 -8 -7 -7 -6 -7 -8 -8 -9 -7 -7 -8 -8 -9 -9 -9 -9 -9 -9 -9 -9 -9 -9 -9 -10 -10 -10 -9 -7 -8 -8 -8 -8 -8 -8 -7 -7 -7 -7 -6 -6 -6 -6 -6 -6 -6 -6
-8 -8 -8 -7 -8 -7 -8 -7 -8 -8 -9 -8 -8 -8 -8 -8 -8 -9 -9 -9 -9 -9 -9 -10 -9 -9 -9 -10 -10 -8 -8 -8 -8 -9 -9 -8 -8 -8 -7 -7 -7 -7 -6 -6 -6 -6 -6 -6 -6
-9 -9 -9 -8 -8 -8 -7 -8 -9 -9 -7 -8 -8 -8 -8 -9 -9 -9 -9 -9 -9 -9 -9 -10 -9 -9 -9 -10 -10 -11 -9 -9 -9 -10 -9 -9 -8 -8 -7 -7 -7 -7 -7 -7 -7 -7 -7 -6 -6
Height
5927 5927 5927 5922 5925 5933 5927 5925 5922 5919 5917 5913 5911 5909 5907 5905 5905 5908 5905 5903 5901 5900 5900 5900 5901 5901 5901 5901 5901 5901 5901 5902 5900 5901 5901 5901 5901 5902 5903 5903 5903 5906 5906 5906 5906 5906 5906 5908 5908
5931 5931 5928 5926 5942 5935 5929 5927 5925 5922 5920 5917 5914 5911 5911 5909 5908 5906 5905 5903 5902 5902 5902 5902 5901 5901 5901 5901 5900 5901 5901 5901 5901 5901 5901 5901 5902 5902 5904 5904 5905 5905 5906 5906 5907 5908 5909 5909 5909
5933 5932 5929 5941 5940 5934 5932 5930 5927 5924 5921 5919 5917 5914 5912 5910 5908 5907 5906 5905 5904 5904 5903 5903 5903 5902 5902 5901 5900 5900 5900 5901 5901 5901 5901 5902 5902 5903 5903 5903 5905 5905 5905 5908 5908 5908 5910 5910 5911
5935 5935 5938 5947 5940 5936 5934 5932 5929 5926 5923 5921 5918 5918 5914 5911 5910 5909 5909 5908 5906 5906 5905 5905 5904 5903 5903 5902 5903 5902 5901 5901 5901 5901 5901 5903 5902 5903 5903 5903 5904 5905 5904 5906 5908 5909 5909 5911 5912
5939 5935 5942 5948 5944 5938 5936 5934 5931 5929 5926 5923 5922 5919 5916 5914 5913 5911 5911 5910 5908 5907 5907 5906 5904 5904 5903 5903 5904 5904 5903 5902 5901 5901 5901 5901 5901 5902 5903 5903 5904 5904 5906 5907 5908 5909 5909 5911 5913
5937 5945 5948 5951 5947 5943 5938 5936 5934 5931 5929 5926 5924 5921 5919 5917 5916 5914 5913 5911 5910 5908 5907 5906 5905 5904 5903 5903 5904 5904 5905 5904 5902 5901 5900 5900 5900 5901 5902 5903 5904 5905 5906 5906 5907 5909 5910 5911 5914
5942 5948 5954 5952 5949 5944 5940 5939 5936 5933 5930 5928 5925 5924 5923 5921 5920 5917 5915 5913 5911 5909 5908 5906 5905 5904 5903 5903 5902 5901 5903 5904 5903 5903 5901 5900 5900 5900 5901 5903 5904 5905 5905 5906 5907 5907 5909 5910 5913
5942 5943 5950 5950 5951 5948 5943 5942 5938 5936 5933 5931 5929 5928 5925 5923 5921 5919 5917 5914 5912 5910 5908 5906 5905 5904 5903 5902 5902 5901 5901 5902 5903 5902 5903 5901 5901 5901 5900 5901 5902 5904 5905 5906 5906 5908 5909 5911 5913
5945 5930 5946 5956 5946 5948 5949 5944 5941 5938 5936 5933 5931 5929 5928 5926 5923 5920 5918 5916 5913 5911 5909 5907 5905 5903 5902 5902 5901 5901 5900 5901 5902 5902 5903 5902 5901 5901 5901 5901 5902 5903 5904 5905 5906 5907 5909 5911 5912
5948 5938 5948 5953 5951 5950 5948 5945 5943 5941 5939 5936 5934 5932 5930 5928 5925 5922 5919 5917 5914 5912 5909 5907 5906 5903 5900 5899 5899 5899 5898 5898 5899 5900 5902 5902 5901 5900 5900 5900 5902 5902 5903 5904 5906 5907 5908 5910 5911
5952 5946 5954 5950 5949 5950 5949 5948 5946 5944 5940 5939 5937 5935 5932 5929 5926 5923 5920 5917 5914 5913 5910 5907 5904 5902 5898 5899 5898 5897 5896 5895 5896 5897 5898 5898 5900 5900 5899 5899 5899 5901 5902 5902 5899 5907 5906 5907 5909
5954 5951 5953 5950 5948 5949 5953 5949 5947 5946 5943 5941 5939 5937 5934 5930 5927 5924 5921 5918 5915 5913 5910 5907 5904 5901 5899 5898 5895 5894 5893 5893 5894 5894 5894 5894 5895 5897 5898 5898 5898 5898 5899 5892 5879 5903 5905 5906 5907
5952 5953 5950 5949 5948 5949 5949 5950 5949 5945 5944 5941 5939 5937 5934 5932 5929 5926 5922 5919 5915 5913 5910 5907 5905 5902 5899 5896 5893 5891 5890 5889 5889 5890 5891 5892 5893 5894 5895 5894 5895 5896 5898 5900 5901 5903 5903 5904 5905
5951 5950 5952 5950 5948 5947 5948 5948 5946 5945 5944 5941 5939 5938 5936 5933 5930 5927 5924 5921 5917 5913 5910 5907 5904 5900 5897 5894 5890 5886 5883 5884 5884 5886 5887 5891 5891 5891 5892 5891 5891 5895 5896 5897 5900 5901 5902 5903 5903
5949 5950 5950 5950 5949 5950 5948 5947 5945 5945 5944 5942 5940 5938 5936 5934 5931 5928 5925 5922 5918 5914 5911 5908 5904 5900 5896 5892 5888 5883 5881 5880 5880 5882 5882 5886 5888 5887 5887 5889 5892 5895 5895 5896 5897 5898 5899 5900 5900
5948 5952 5954 5952 5949 5949 5947 5935 5932 5944 5943 5942 5940 5938 5937 5935 5932 5929 5926 5923 5919 5915 5912 5908 5904 5900 5896 5890 5885 5880 5877 5876 5876 5880 5879 5882 5883 5885 5885 5888 5891 5892 5895 5894 5894 5895 5897 5897 5897
5950 5949 5946 5953 5947 5948 5949 5942 5946 5944 5942 5941 5940 5938 5936 5934 5932 5930 5927 5923 5919 5915 5912 5908 5904 5899 5895 5889 5883 5877 5873 5874 5874 5876 5877 5880 5882 5883 5884 5887 5868 5860 5890 5893 5891 5892 5892 5893 5894
5954 5955 5950 5951 5950 5947 5948 5949 5948 5944 5945 5941 5939 5938 5936 5934 5932 5929 5927 5923 5919 5914 5911 5906 5903 5898 5894 5888 5882 5875 5871 5873 5874 5875 5877 5879 5881 5879 5882 5884 5883 5882 5891 5889 5890 5891 5891 5891 5891
5946 5942 5948 5949 5946 5946 5949 5951 5952 5945 5945 5945 5940 5938 5934 5932 5931 5928 5926 5923 5919 5914 5910 5905 5901 5898 5893 5889 5883 5878 5873 5872 5873 5872 5875 5877 5878 5878 5879 5882 5885 5887 5888 5888 5888 5888 5888 5888 5888
5942 5944 5946 5949 5944 5945 5949 5948 5949 5946 5945 5945 5941 5937 5934 5931 5928 5927 5925 5923 5919 5914 5910 5904 5899 5897 5894 5889 5884 5880 5876 5872 5872 5873 5873 5875 5876 5877 5878 5881 5884 5885 5885 5885 5885 5885 5885 5884 5884
5938 5943 5947 5948 5945 5943 5946 5945 5945 5942 5941 5939 5939 5935 5932 5930 5926 5925 5924 5922 5917 5914 5909 5904 5899 5897 5894 5891 5887 5882 5879 5877 5876 5874 5874 5875 5875 5876 5877 5881 5883 5884 5884 5883 5882 5882 5881 5880 5880
5935 5940 5941 5943 5943 5946 5944 5946 5938 5943 5939 5936 5935 5933 5930 5929 5926 5923 5922 5920 5917 5912 5908 5904 5899 5897 5894 5891 5888 5885 5882 5880 5877 5873 5873 5873 5874 5875 5877 5880 5880 5881 5880 5880 5880 5879 5877 5877 5877
5932 5937 5938 5938 5940 5942 5945 5945 5945 5941 5938 5937 5933 5930 5929 5927 5924 5921 5920 5918 5915 5912 5908 5904 5899 5896 5894 5889 5887 5886 5883 5880 5878 5876 5875 5874 5875 5875 5875 5877 5878 5878 5877 5878 5877 5876 5875 5874 5873
5930 5930 5932 5934 5937 5939 5941 5942 5943 5941 5935 5933 5928 5928 5927 5924 5922 5919 5917 5915 5913 5910 5906 5903 5899 5894 5892 5888 5885 5883 5882 5879 5877 5876 5874 5874 5875 5874 5874 5875 5875 5874 5875 5875 5875 5875 5873 5871 5870
5924 5928 5932 5935 5936 5936 5935 5936 5938 5932 5930 5930 5926 5925 5924 5921 5920 5918 5915 5913 5910 5908 5904 5901 5897 5892 5888 5885 5883 5880 5878 5877 5875 5874 5874 5875 5874 5874 5874 5873 5873 5873 5872 5873 5874 5873 5871 5870 5869
5920 5927 5931 5934 5935 5935 5929 5931 5931 5925 5926 5924 5923 5922 5921 5920 5918 5916 5914 5911 5908 5905 5902 5898 5894 5889 5885 5881 5878 5874 5872 5872 5872 5870 5871 5873 5873 5873 5872 5871 5870 5870 5871 5872 5872 5871 5870 5870 5870
5919 5919 5927 5929 5929 5929 5930 5927 5924 5922 5921 5921 5920 5920 5919 5917 5915 5913 5912 5909 5906 5903 5900 5896 5891 5886 5882 5878 5873 5867 5866 5864 5864 5865 5866 5870 5871 5871 5870 5869 5868 5869 5871 5872 5872 5870 5870 5870 5869
5914 5919 5921 5923 5926 5927 5927 5923 5923 5919 5919 5917 5917 5917 5916 5914 5913 5910 5908 5906 5903 5900 5897 5893 5889 5882 5878 5873 5865 5854 5850 5858 5859 5860 5863 5867 5869 5869 5868 5867 5867 5867 5869 5871 5871 5872 5871 5871 5870
5909 5912 5917 5922 5918 5922 5918 5918 5913 5916 5915 5914 5914 5914 5913 5911 5910 5908 5906 5903 5900 5897 5894 5889 5886 5880 5875 5869 5859 5844 5847 5852 5854 5856 5860 5864 5865 5866 5866 5865 5865 5866 5867 5869 5870 5871 5872 5871 5870
5908 5910 5911 5914 5918 5918 5916 5917 5909 5911 5912 5911 5911 5910 5910 5909 5908 5907 5904 5901 5898 5895 5890 5887 5883 5879 5875 5869 5861 5856 5846 5850 5851 5854 5859 5860 5862 5863 5863 5863 5863 5864 5865 5867 5868 5869 5870 5869 5869
Wind_Speed
21 20 16 25 34 14 17 18 17 17 15 15 13 4 10 11 1 3 5 3 2 2 2 2 1 3 4 4 4 5 5 5 6 6 6 5 3 4 6 4 4 13 13 14 13 13 13 13 14
20 15 15 35 13 14 17 16 15 15 14 16 16 17 10 7 3 0 2 2 1 2 1 1 2 5 5 4 3 3 4 5 5 6 6 6 5 6 6 4 2 1 13 11 13 12 13 14 14
18 22 23 15 12 15 14 14 15 16 16 15 17 16 18 16 12 9 7 4 3 4 3 1 2 4 4 2 3 4 4 4 5 6 6 5 4 4 5 3 2 2 3 15 12 13 12 12 13
21 24 28 10 12 14 13 14 17 17 19 17 16 15 18 17 15 12 10 7 7 6 5 4 5 4 2 1 3 4 6 7 6 7 6 4 4 4 3 2 2 3 5 10 17 13 12 13 12
24 26 24 11 10 13 14 14 17 17 18 19 18 18 18 18 17 15 12 10 9 8 6 4 4 4 2 2 5 6 6 8 9 10 8 7 6 4 3 2 0 2 3 1 11 15 14 13 13
25 17 12 9 10 11 11 16 17 16 18 19 17 21 22 22 20 17 15 14 12 9 6 5 5 4 3 2 4 8 7 8 8 9 9 8 6 6 6 6 5 4 5 6 2 15 14 13 14
16 19 8 7 6 8 12 15 13 17 18 19 20 20 20 20 20 20 19 17 15 11 9 7 5 6 6 6 5 7 8 9 9 9 9 8 7 6 6 6 5 5 5 5 5 1 7 17 16
16 15 9 14 6 5 14 12 16 17 17 19 19 19 21 21 20 20 18 15 14 13 12 8 7 6 6 7 9 9 8 9 10 11 9 8 6 5 5 4 5 4 5 5 5 3 1 2 13
9 4 17 4 12 6 12 9 13 15 17 22 24 23 21 21 21 21 20 18 16 15 14 10 5 4 4 6 8 10 11 10 10 11 11 11 8 7 6 6 6 6 5 4 4 3 6 4 7
2 5 12 6 10 2 7 4 8 16 16 22 22 20 20 22 24 22 21 20 20 18 15 14 12 10 6 5 8 11 12 13 12 11 12 13 11 9 7 6 6 6 5 5 4 5 6 8 7
2 5 2 2 3 12 5 5 9 11 17 17 19 19 21 25 29 24 23 23 23 21 16 16 16 18 8 4 6 12 15 16 15 15 14 16 14 12 10 8 7 6 6 6 7 7 6 7 8
6 3 6 2 3 5 4 6 5 9 10 13 15 15 18 24 26 24 27 27 24 21 19 16 17 20 7 6 10 14 15 18 18 18 17 18 16 12 10 7 8 9 9 13 6 11 8 8 7
2 7 4 4 4 5 5 2 3 5 9 12 15 18 21 23 25 24 27 31 24 21 19 19 15 19 14 14 13 10 9 10 15 20 19 18 16 13 12 13 11 9 10 9 14 11 10 11 10
11 9 6 5 8 4 3 6 8 8 10 12 15 16 19 22 23 25 27 29 24 21 21 19 15 22 19 16 16 17 13 12 14 15 21 20 18 16 15 8 5 7 8 7 8 12 13 13 13
8 7 5 8 6 5 3 11 4 9 8 10 13 13 16 19 23 26 25 26 26 22 19 20 19 21 25 21 18 20 23 12 15 11 21 20 23 20 19 11 9 7 8 6 8 8 9 10 12
9 6 11 11 10 7 6 16 10 16 9 8 11 14 16 19 23 25 24 25 26 24 21 21 23 25 28 24 21 22 23 11 16 11 18 21 18 15 10 12 5 7 9 9 10 12 11 14 15
9 17 14 2 16 12 3 3 4 21 12 10 11 13 18 21 21 23 19 26 27 24 23 21 23 25 28 28 23 25 17 10 13 15 14 15 10 12 15 9 18 8 11 11 11 12 14 14 17
11 11 8 12 6 12 8 6 12 18 8 8 12 14 17 17 17 20 19 24 26 24 25 24 23 24 27 28 24 25 11 9 10 8 12 9 11 8 9 8 9 7 10 7 9 11 13 14 16
17 12 13 9 14 13 8 9 10 14 9 11 9 14 18 16 13 18 18 21 23 24 27 26 24 24 25 26 23 16 9 6 9 8 12 9 9 12 8 6 7 7 7 8 11 12 11 13 13
23 15 11 12 14 13 9 8 7 14 11 9 14 15 15 13 13 15 15 18 23 27 29 26 26 25 19 22 24 23 18 6 5 9 9 10 14 12 7 5 5 8 10 11 12 12 10 10 11
17 14 12 13 13 10 10 10 15 11 14 12 10 15 10 11 18 15 17 19 24 25 27 27 22 13 16 19 19 20 21 10 4 7 8 9 12 13 10 5 9 9 11 12 10 8 8 11 12
16 14 15 16 13 6 14 7 12 10 14 17 11 9 9 15 20 19 18 20 22 23 27 25 20 18 18 18 20 16 18 14 16 8 8 5 5 4 7 7 8 8 8 7 6 6 7 9 12
12 13 17 14 13 12 13 11 6 21 19 9 14 8 13 15 17 18 20 21 22 23 27 22 23 23 20 19 18 19 17 16 7 9 7 5 2 3 4 7 6 4 4 5 6 8 9 11 13
14 18 13 12 11 14 14 14 12 14 16 15 17 10 13 16 16 19 21 23 22 24 23 24 26 27 22 22 20 20 19 17 5 6 4 4 4 5 8 7 3 1 2 4 7 9 10 9 8
18 13 8 9 10 13 17 16 12 21 29 26 18 11 13 18 16 20 22 23 23 20 23 25 27 27 22 21 22 24 24 14 8 6 8 5 4 5 8 7 3 1 2 5 8 8 5 5 6
17 16 12 10 13 15 22 21 12 24 18 19 14 12 14 16 17 21 21 21 19 21 23 27 27 24 21 24 27 27 27 24 22 10 9 9 6 5 7 6 3 0 3 4 4 3 2 2 3
16 20 14 18 18 18 12 13 13 20 18 15 11 12 14 15 18 22 18 15 19 22 27 27 28 23 23 28 32 34 35 25 14 13 12 11 8 6 7 6 3 1 0 0 3 6 6 5 6
22 17 17 15 13 15 12 17 11 19 9 10 12 12 13 14 17 18 13 16 22 26 28 29 27 24 24 30 36 38 13 10 8 9 11 11 10 6 4 3 2 1 4 5 5 4 5 6 6
23 23 19 15 15 13 16 15 19 19 14 14 13 13 11 13 16 16 14 19 26 26 27 29 29 29 25 31 37 4 14 9 7 10 12 11 10 8 4 3 2 3 6 7 5 3 2 4 6
18 19 20 18 17 17 20 11 4 13 16 15 16 15 12 10 12 14 18 22 24 26 28 29 30 28 23 26 30 26 15 8 13 12 9 9 9 9 6 5 4 4 5 9 10 10 9 8 9
Wind_Direction
66 59 65 62 54 64 66 62 64 57 53 60 70 58 67 282 323 8 304 319 249 198 215 206 261 268 266 261 261 262 227 217 207 198 182 172 182 131 123 160 129 147 144 145 136 133 132 137 138
65 64 61 60 57 61 65 63 63 64 60 69 74 78 88 83 116 116 24 39 213 140 117 182 251 271 265 262 236 236 238 202 188 190 181 159 172 186 176 169 196 326 148 152 151 140 136 134 134
64 56 72 52 71 66 67 68 68 68 64 67 71 80 83 75 69 59 58 61 102 101 106 82 330 303 262 234 227 227 201 178 170 167 159 134 138 139 175 204 174 335 22 183 165 150 144 137 137
63 69 52 57 66 70 69 68 66 65 64 64 65 65 71 74 65 53 46 44 54 59 56 38 13 343 288 285 262 237 207 194 191 183 184 179 175 159 140 117 93 53 40 151 166 161 154 153 150
78 74 88 37 64 73 74 73 71 68 67 63 64 65 64 67 65 60 51 46 45 44 32 34 16 359 351 312 280 255 238 214 210 204 207 211 214 220 226 226 100 6 20 39 181 176 169 171 165
76 43 65 69 43 38 67 70 69 67 69 65 62 58 57 59 61 63 59 48 44 33 22 10 358 338 324 287 286 280 264 248 228 215 206 212 209 216 225 229 240 267 314 318 331 169 185 184 180
82 90 95 75 69 65 63 70 74 59 57 57 50 50 53 52 54 54 51 44 41 35 23 15 357 333 316 295 268 265 261 259 251 241 224 209 207 213 210 212 217 244 256 266 288 341 140 192 185
114 134 126 41 57 46 70 66 64 62 53 52 42 47 43 44 44 47 48 40 31 33 29 22 4 338 319 308 296 280 268 258 247 243 236 226 204 194 194 190 185 198 219 217 229 250 260 218 178
100 271 130 80 73 7 60 44 68 62 49 50 43 41 42 43 43 42 38 33 30 21 8 2 346 339 325 309 297 291 282 277 266 250 243 229 216 198 187 182 179 187 202 209 217 208 233 237 208
282 343 62 176 140 46 122 37 53 49 48 49 50 46 47 44 35 31 28 27 27 16 10 6 360 328 269 250 278 278 268 261 256 254 247 238 224 215 205 197 195 200 213 217 216 210 215 233 241
13 29 94 58 152 119 328 24 52 33 42 46 49 46 46 37 24 28 24 21 22 19 10 2 350 355 290 267 280 291 268 256 250 245 242 240 235 220 213 210 214 218 227 237 220 250 224 215 220
112 201 154 200 180 117 122 263 33 82 43 38 41 38 29 23 24 24 21 15 14 15 9 6 2 8 29 312 315 311 286 273 269 246 239 238 230 224 223 226 224 219 220 250 302 245 249 248 238
137 219 216 227 221 152 183 161 237 56 38 33 28 28 21 18 20 14 8 4 9 14 11 360 355 354 2 344 325 314 310 288 266 246 242 235 231 221 216 216 229 233 243 234 239 240 253 257 253
213 201 214 199 243 274 37 301 2 33 37 31 27 19 13 12 12 10 6 7 11 15 13 7 354 354 356 350 330 309 327 275 238 250 235 234 220 212 206 211 259 241 246 247 234 243 250 253 252
208 191 248 219 245 277 314 230 293 344 22 17 20 12 3 9 7 8 2 3 8 7 9 6 351 353 355 348 332 322 321 261 234 267 225 219 220 205 195 192 238 233 232 242 239 242 248 251 249
207 226 229 210 261 263 291 304 107 318 342 358 356 3 11 7 7 6 358 358 0 1 0 358 353 354 356 348 336 325 320 247 212 245 220 225 210 193 223 214 241 257 262 244 252 255 262 263 250
257 225 181 299 273 237 225 251 164 299 317 329 338 350 0 359 2 358 348 346 349 351 351 348 349 348 355 351 342 332 312 234 210 235 214 208 237 213 219 196 231 203 265 274 262 263 262 266 255
241 251 297 238 264 244 253 241 282 303 289 320 325 341 343 350 354 348 345 337 343 345 343 341 341 346 353 354 347 344 319 217 234 254 206 222 213 261 226 191 239 266 242 267 269 261 263 258 263
250 282 214 240 252 244 242 253 251 272 276 292 335 333 322 328 344 341 339 334 339 337 335 334 340 343 346 357 357 359 9 210 235 229 212 238 242 264 215 238 209 230 262 281 287 285 274 267 266
227 239 247 253 255 234 248 238 237 233 268 283 301 322 320 313 331 342 335 329 332 339 338 334 325 328 342 1 6 13 1 345 229 226 237 225 224 253 248 246 243 274 285 288 292 288 274 285 281
227 231 241 240 263 237 239 252 245 275 299 292 299 311 317 321 327 330 327 326 331 340 349 339 326 350 346 354 16 17 5 20 284 216 202 219 243 244 234 245 261 276 291 298 300 291 285 293 288
231 245 232 233 239 266 256 290 253 267 294 294 304 319 305 313 313 325 320 323 334 332 336 349 345 344 345 343 354 3 16 357 6 45 78 86 60 152 187 263 277 284 294 299 303 312 308 292 283
213 224 231 234 241 240 252 271 239 289 296 262 283 307 297 307 318 321 319 324 331 326 331 337 342 335 334 331 341 349 344 359 337 339 29 36 5 309 262 250 238 250 274 280 303 302 295 299 292
210 224 233 239 244 250 263 246 251 272 251 274 292 297 301 305 310 318 316 321 325 326 329 337 339 330 324 322 334 334 337 341 316 311 313 325 274 234 213 213 209 188 255 312 306 298 307 312 303
228 223 236 256 266 269 244 246 235 255 248 268 282 294 285 294 309 310 310 319 322 334 335 338 338 330 327 322 320 322 324 318 322 287 270 274 270 234 208 193 172 196 355 322 303 312 321 313 309
235 210 222 237 261 259 269 276 257 249 275 269 274 269 280 289 299 299 307 319 338 338 337 338 337 333 326 318 315 315 315 304 303 244 234 244 252 249 217 193 190 166 352 313 333 26 7 51 12
244 224 225 246 248 242 258 274 262 268 273 267 265 255 276 293 292 297 313 324 331 333 337 333 335 328 319 317 315 308 304 298 278 218 203 227 251 251 229 198 185 113 206 72 114 86 86 71 50
210 232 223 234 243 245 265 234 258 263 244 260 257 261 273 278 285 297 309 318 323 332 337 336 332 324 322 318 319 313 281 267 189 189 179 221 237 247 228 195 168 179 178 145 126 98 71 57 41
227 232 217 224 250 235 258 270 214 234 229 253 254 252 256 274 300 308 314 316 318 325 330 327 330 330 327 332 331 341 158 224 239 179 176 221 231 243 242 211 210 224 208 204 215 223 296 347 347
217 241 234 233 250 244 242 279 229 265 262 251 253 248 260 280 303 310 317 320 321 325 323 316 326 325 331 337 341 359 43 88 123 135 202 224 234 238 248 247 237 241 250 234 232 250 269 291 307